This is the latest recevied weather packets stored in our database for station/object N7ZAP. If no packets are shown the sender has not sent any weather packets the latest 10 day(s).
| Time | Temp. | Humidity | Pressure | Rain* | Wind** | Luminosity | Snow |
|---|---|---|---|---|---|---|---|
| 1788374487 | - | - | - | 0 mm | - | - | - |
| 1788374183 | 32.78° C | 26% | 1022.3 hPa | 0 mm | - | - | - |
| 1788373879 | 32.78° C | 26% | 1022.5 hPa | 0 mm | - | - | - |
| 1788373575 | 32.22° C | 26% | 1022.3 hPa | 0 mm | - | - | - |
| 1788373271 | 32.22° C | 26% | 1022.3 hPa | 0 mm | - | - | - |
| 1788372967 | - | - | - | 0 mm | - | - | - |
| 1788372667 | 32.22° C | 27% | 1022.5 hPa | 0 mm | - | - | - |
| 1788372366 | 32.22° C | 27% | 1022.8 hPa | 0 mm | - | - | - |
| 1788372063 | 32.22° C | 26% | 1022.7 hPa | 0 mm | - | - | - |
| 1788371762 | 31.67° C | 28% | 1023.1 hPa | 0 mm | - | - | - |
| 1788371458 | 31.67° C | 27% | 1022.7 hPa | 0 mm | - | - | - |
| 1788371154 | 32.22° C | 26% | 1023.1 hPa | 0 mm | - | - | - |
| 1788370851 | 32.78° C | 26% | 1023.1 hPa | 0 mm | - | - | - |
| 1788370550 | 32.22° C | 27% | 1023 hPa | 0 mm | - | - | - |
| 1788370245 | 31.67° C | 27% | 1023.1 hPa | 0 mm | - | - | - |
| 1788369944 | 31.67° C | 27% | 1023.1 hPa | 0 mm | - | - | - |
| 1788369639 | 31.11° C | 29% | 1023.2 hPa | 0 mm | - | - | - |
| 1788369335 | 31.67° C | 28% | 1023.1 hPa | 0 mm | - | - | - |
| 1788369031 | 31.11° C | 29% | 1023.1 hPa | 0 mm | - | - | - |
| 1788368726 | 30.56° C | 29% | 1023.3 hPa | 0 mm | - | - | - |
| 1788368422 | 30° C | 30% | 1023.2 hPa | 0 mm | - | - | - |
| 1788368122 | 30.56° C | 30% | 1023.4 hPa | 0 mm | - | - | - |
| 1788367822 | 29.44° C | 30% | 1023.1 hPa | 0 mm | - | - | - |
| 1788367517 | 29.44° C | 31% | 1023.4 hPa | 0 mm | - | - | - |
| 1788367216 | 29.44° C | 32% | 1023.5 hPa | 0 mm | - | - | - |
* Rain latest hour (hover to see other rain measurements)
** Current wind speed in m/s (hover to see current wind gust speed)